User: anonymous   Login
Location: Unspecified
(0.0000°N, 0.0000°E)
Time: 03:39:31
(UTC+00:00)
Language:

USA 268 - Orbit

View from above orbital plane
View from above orbital plane
View from above satellite
View from above satellite

Ground track
Ground track

The orbit data is extracted from the following two-line orbital elements,

1 41584U 16036A   17143.00324304 0.00000000  00000-0  00000-0 0    03
2 41584   7.3641 352.5995 0058898  57.7546 302.8368  1.00130800    08
Epoch (UTC): 23 May 2017 00:04:40
Eccentricity: 0.0058898
inclination: 7.3641°
perigee height: 35577 km
apogee height: 36074 km
right ascension of ascending node: 352.5995°
argument of perigee: 57.7546°
revolutions per day: 1.00130800
mean anomaly at epoch: 302.8368°
orbit number at epoch: 0

The dashed part of the orbit path shows where the satellite is in the earth's shadow,  

DLR